You are not logged in, Click here to log in
ICAO: RJNT Country: 日本富山縣富山市
Latitude: 36.6433 Longitude: 137.19
Total Arrivals: 21 Total Departures: 20
Latest Arrival: NH621 (RCTP-RJNT)信益. 劉 Latest Departure: BR17E3 (RJNT-RCTP)信益. 劉
Scenery:
METAR : RJNT 250500Z 27012KT 250V310 9999 FEW040 SCT080 BKN/// 28/19 Q1010

富山空港TOY